Location: Saint-Br�vin-les-Pins
(47.2500°N, 2.1670°W)
Time: 12:46:27
(UTC+02:00)

ISS - Visible Passes

Search period start: 18 October 2019 00:00
Search period end: 27 October 2019 23:00
Orbit: 411 x 421 km, 51.6° (Epoch: 18 October)

Date Brightness Start Highest point End Pass type
(mag) Time Alt. Az. Time Alt. Az. Time Alt. Az.
23 Oct -0.4 07:37:19 10° SSE 07:38:14 11° SE 07:39:10 10° ESE visible
25 Oct -1.6 07:34:30 10° SSW 07:37:20 25° SE 07:40:10 10° E visible
26 Oct -1.0 06:46:42 10° S 06:48:52 16° SE 06:51:02 10° E visible
27 Oct -3.2 06:33:28 11° SW 06:36:33 56° SSE 06:39:52 10° ENE visible
